Time,TemperatureF,DewpointF,PressureIn,WindDirection,WindDirectionDegrees,WindSpeedMPH,WindSpeedGustMPH,Humidity,HourlyPrecipIn,Conditions,Clouds,dailyrainin,SoftwareType,DateUTC
2013-07-09 00:00:00,81.6,72.9,29.84,SSE,148,1.0,1.0,75,0.00,,,0.00,Wunderground v.1.15,2013-07-09 05:00:00,
2013-07-09 00:10:00,81.6,72.9,29.84,SSE,150,1.0,1.0,75,0.00,,,0.00,Wunderground v.1.15,2013-07-09 05:10:00,
2013-07-09 00:15:00,81.6,72.5,29.84,SE,143,0.0,1.0,74,0.00,,,0.00,Wunderground v.1.15,2013-07-09 05:15:00,
2013-07-09 00:25:00,81.6,72.5,29.84,SSE,150,1.0,1.0,74,0.00,,,0.00,Wunderground v.1.15,2013-07-09 05:25:00,
2013-07-09 00:30:00,81.6,72.1,29.84,SE,133,1.0,1.0,73,0.00,,,0.00,Wunderground v.1.15,2013-07-09 05:30:00,
2013-07-09 00:40:00,81.7,72.2,29.84,SSE,152,2.0,2.0,73,0.00,,,0.00,Wunderground v.1.15,2013-07-09 05:40:00,
2013-07-09 00:50:00,81.5,71.6,29.83,SE,141,2.0,2.0,72,0.00,,,0.00,Wunderground v.1.15,2013-07-09 05:50:00,
2013-07-09 01:00:00,81.4,71.5,29.83,SSE,150,2.0,2.0,72,0.00,,,0.00,Wunderground v.1.15,2013-07-09 06:00:00,
2013-07-09 01:05:00,81.3,71.4,29.83,SE,135,2.0,2.0,72,0.00,,,0.00,Wunderground v.1.15,2013-07-09 06:05:00,
2013-07-09 01:15:00,81.3,71.0,29.84,SSE,150,2.0,3.0,71,0.00,,,0.00,Wunderground v.1.15,2013-07-09 06:15:00,
2013-07-09 01:25:00,81.5,70.8,29.84,SSE,156,2.0,2.0,70,0.00,,,0.00,Wunderground v.1.15,2013-07-09 06:25:00,
2013-07-09 01:30:00,81.6,70.4,29.84,SSE,165,2.0,2.0,69,0.00,,,0.00,Wunderground v.1.15,2013-07-09 06:30:00,
2013-07-09 01:40:00,81.7,70.1,29.83,SSE,162,2.0,2.0,68,0.00,,,0.00,Wunderground v.1.15,2013-07-09 06:40:00,
2013-07-09 01:50:00,81.8,69.8,29.84,South,173,2.0,2.0,67,0.00,,,0.00,Wunderground v.1.15,2013-07-09 06:50:00,
2013-07-09 01:55:00,81.9,69.9,29.84,SSE,153,2.0,3.0,67,0.00,,,0.00,Wunderground v.1.15,2013-07-09 06:55:00,
2013-07-09 02:05:00,81.8,69.8,29.83,SE,132,2.0,2.0,67,0.00,,,0.00,Wunderground v.1.15,2013-07-09 07:05:00,
2013-07-09 02:10:00,81.8,69.3,29.83,SSW,205,2.0,2.0,66,0.00,,,0.00,Wunderground v.1.15,2013-07-09 07:10:00,
2013-07-09 02:20:00,81.8,69.3,29.84,SSW,202,2.0,2.0,66,0.00,,,0.00,Wunderground v.1.15,2013-07-09 07:20:00,
2013-07-09 02:30:00,81.8,69.3,29.83,SSE,158,1.0,1.0,66,0.00,,,0.00,Wunderground v.1.15,2013-07-09 07:30:00,
2013-07-09 02:35:00,81.8,69.3,29.84,SSW,211,1.0,1.0,66,0.00,,,0.00,Wunderground v.1.15,2013-07-09 07:35:00,
2013-07-09 02:45:00,80.8,70.1,29.84,WSW,244,0.0,1.0,70,0.00,,,0.00,Wunderground v.1.15,2013-07-09 07:45:00,
2013-07-09 02:55:00,80.2,69.5,29.85,SSW,212,0.0,0.0,70,0.00,,,0.00,Wunderground v.1.15,2013-07-09 07:55:00,
2013-07-09 03:00:00,80.2,69.9,29.85,SSW,212,0.0,0.0,71,0.00,,,0.00,Wunderground v.1.15,2013-07-09 08:00:00,
2013-07-09 03:10:00,80.0,69.7,29.85,SSW,212,0.0,0.0,71,0.00,,,0.00,Wunderground v.1.15,2013-07-09 08:10:00,
2013-07-09 03:20:00,79.7,69.9,29.85,ESE,121,0.0,0.0,72,0.00,,,0.00,Wunderground v.1.15,2013-07-09 08:20:00,
2013-07-09 03:30:00,79.5,70.1,29.85,SE,142,0.0,0.0,73,0.00,,,0.00,Wunderground v.1.15,2013-07-09 08:30:00,
2013-07-09 03:40:00,79.5,70.1,29.84,SE,145,0.0,0.0,73,0.00,,,0.00,Wunderground v.1.15,2013-07-09 08:40:00,
2013-07-09 03:45:00,79.4,70.4,29.84,SSE,150,0.0,0.0,74,0.00,,,0.00,Wunderground v.1.15,2013-07-09 08:45:00,
2013-07-09 03:50:00,79.3,70.3,29.84,SSE,156,0.0,0.0,74,0.00,,,0.00,Wunderground v.1.15,2013-07-09 08:50:00,
2013-07-09 04:00:00,79.5,70.1,29.84,SSE,167,2.0,2.0,73,0.00,,,0.00,Wunderground v.1.15,2013-07-09 09:00:00,
2013-07-09 04:10:00,79.7,70.3,29.84,SSE,152,2.0,2.0,73,0.00,,,0.00,Wunderground v.1.15,2013-07-09 09:10:00,
2013-07-09 04:15:00,79.7,70.3,29.84,SSE,150,1.0,2.0,73,0.00,,,0.00,Wunderground v.1.15,2013-07-09 09:15:00,
2013-07-09 04:25:00,79.3,70.3,29.85,SE,141,1.0,1.0,74,0.00,,,0.00,Wunderground v.1.15,2013-07-09 09:25:00,
2013-07-09 04:30:00,79.0,70.4,29.84,SSE,166,1.0,1.0,75,0.00,,,0.00,Wunderground v.1.15,2013-07-09 09:30:00,
2013-07-09 04:40:00,78.7,70.5,29.84,SE,124,1.0,1.0,76,0.00,,,0.00,Wunderground v.1.15,2013-07-09 09:40:00,
2013-07-09 04:50:00,78.7,70.5,29.82,ESE,114,1.0,1.0,76,0.00,,,0.00,Wunderground v.1.15,2013-07-09 09:50:00,
2013-07-09 05:00:00,78.2,70.4,29.81,SE,143,1.0,1.0,77,0.00,,,0.00,Wunderground v.1.15,2013-07-09 10:00:00,
2013-07-09 05:10:00,77.8,70.4,29.81,East,96,1.0,1.0,78,0.00,,,0.00,Wunderground v.1.15,2013-07-09 10:10:00,
2013-07-09 05:16:00,77.7,70.7,29.81,SE,141,1.0,1.0,79,0.00,,,0.00,Wunderground v.1.15,2013-07-09 10:16:00,
2013-07-09 05:25:00,77.5,70.5,29.82,South,173,1.0,1.0,79,0.00,,,0.00,Wunderground v.1.15,2013-07-09 10:25:00,
2013-07-09 05:31:00,77.4,70.7,29.82,SE,134,1.0,1.0,80,0.00,,,0.00,Wunderground v.1.15,2013-07-09 10:31:00,
2013-07-09 05:40:00,77.2,70.5,29.82,ESE,112,1.0,1.0,80,0.00,,,0.00,Wunderground v.1.15,2013-07-09 10:40:00,
2013-07-09 05:50:00,77.2,70.5,29.81,SE,141,0.0,0.0,80,0.00,,,0.00,Wunderground v.1.15,2013-07-09 10:50:00,
2013-07-09 05:55:00,77.3,70.3,29.81,SSE,147,0.0,1.0,79,0.00,,,0.00,Wunderground v.1.15,2013-07-09 10:55:00,
2013-07-09 06:01:00,77.6,70.2,29.82,SE,146,1.0,1.0,78,0.00,,,0.00,Wunderground v.1.15,2013-07-09 11:01:00,
2013-07-09 06:10:00,78.1,70.3,29.83,SE,134,2.0,2.0,77,0.00,,,0.00,Wunderground v.1.15,2013-07-09 11:10:00,
2013-07-09 06:16:00,78.3,70.1,29.83,SE,134,2.0,2.0,76,0.00,,,0.00,Wunderground v.1.15,2013-07-09 11:16:00,
2013-07-09 06:25:00,78.5,70.3,29.83,SSE,160,2.0,2.0,76,0.00,,,0.00,Wunderground v.1.15,2013-07-09 11:25:00,
2013-07-09 06:30:00,78.5,70.3,29.83,SE,128,1.0,1.0,76,0.00,,,0.00,Wunderground v.1.15,2013-07-09 11:30:00,
2013-07-09 06:40:00,78.2,70.4,29.83,SSE,159,1.0,2.0,77,0.00,,,0.00,Wunderground v.1.15,2013-07-09 11:40:00,
2013-07-09 06:50:00,77.9,70.5,29.83,SSE,149,2.0,2.0,78,0.00,,,0.00,Wunderground v.1.15,2013-07-09 11:50:00,
2013-07-09 06:55:00,77.9,70.5,29.83,SSE,156,1.0,2.0,78,0.00,,,0.00,Wunderground v.1.15,2013-07-09 11:55:00,
2013-07-09 07:05:00,77.7,70.7,29.83,SSE,159,2.0,2.0,79,0.00,,,0.00,Wunderground v.1.15,2013-07-09 12:05:00,
2013-07-09 07:20:00,77.5,70.8,29.83,SE,128,1.0,1.0,80,0.00,,,0.00,Wunderground v.1.15,2013-07-09 12:20:00,
2013-07-09 07:30:00,77.4,71.1,29.83,ESE,114,1.0,1.0,81,0.00,,,0.00,Wunderground v.1.15,2013-07-09 12:30:00,
2013-07-09 07:40:00,77.4,71.1,29.83,SSE,155,1.0,1.0,81,0.00,,,0.00,Wunderground v.1.15,2013-07-09 12:40:00,
2013-07-09 07:45:00,77.5,71.2,29.83,SSE,158,1.0,1.0,81,0.00,,,0.00,Wunderground v.1.15,2013-07-09 12:45:00,
2013-07-09 07:50:00,77.5,71.2,29.83,ESE,115,1.0,1.0,81,0.00,,,0.00,Wunderground v.1.15,2013-07-09 12:50:00,
2013-07-09 08:00:00,77.5,71.2,29.84,South,186,1.0,1.0,81,0.00,,,0.00,Wunderground v.1.15,2013-07-09 13:00:00,
2013-07-09 08:05:00,77.5,71.6,29.85,SSW,210,0.0,1.0,82,0.00,,,0.00,Wunderground v.1.15,2013-07-09 13:05:00,
2013-07-09 08:15:00,77.5,71.6,29.85,SSW,210,0.0,0.0,82,0.00,,,0.00,Wunderground v.1.15,2013-07-09 13:15:00,
2013-07-09 08:25:00,77.5,71.6,29.86,SSW,210,0.0,0.0,82,0.00,,,0.00,Wunderground v.1.15,2013-07-09 13:25:00,
2013-07-09 08:30:00,77.6,72.0,29.86,SSW,210,0.0,0.0,83,0.00,,,0.00,Wunderground v.1.15,2013-07-09 13:30:00,
2013-07-09 08:40:00,77.6,72.0,29.87,SSW,210,0.0,0.0,83,0.00,,,0.00,Wunderground v.1.15,2013-07-09 13:40:00,
2013-07-09 08:50:00,77.7,72.1,29.87,SW,222,0.0,0.0,83,0.00,,,0.00,Wunderground v.1.15,2013-07-09 13:50:00,
2013-07-09 09:00:00,77.6,72.0,29.87,SW,222,0.0,0.0,83,0.00,,,0.00,Wunderground v.1.15,2013-07-09 14:00:00,
2013-07-09 09:05:00,77.6,72.0,29.88,SW,222,0.0,0.0,83,0.00,,,0.00,Wunderground v.1.15,2013-07-09 14:05:00,
2013-07-09 09:15:00,78.0,72.4,29.88,NNE,20,0.0,0.0,83,0.00,,,0.00,Wunderground v.1.15,2013-07-09 14:15:00,
2013-07-09 09:20:00,78.3,72.7,29.88,NNE,20,0.0,0.0,83,0.00,,,0.00,Wunderground v.1.15,2013-07-09 14:20:00,
2013-07-09 09:30:00,78.9,72.6,29.88,NNE,20,0.0,0.0,81,0.00,,,0.00,Wunderground v.1.15,2013-07-09 14:30:00,
2013-07-09 09:45:00,80.2,73.1,29.87,NNE,20,0.0,0.0,79,0.00,,,0.00,Wunderground v.1.15,2013-07-09 14:45:00,
2013-07-09 10:00:00,81.1,72.8,29.86,SW,219,0.0,0.0,76,0.00,,,0.00,Wunderground v.1.15,2013-07-09 15:00:00,
2013-07-09 10:11:00,81.5,72.8,29.86,South,172,0.0,0.0,75,0.00,,,0.00,Wunderground v.1.15,2013-07-09 15:11:00,
2013-07-09 10:20:00,81.9,72.8,29.85,SE,130,1.0,1.0,74,0.00,,,0.00,Wunderground v.1.15,2013-07-09 15:20:00,
2013-07-09 10:30:00,82.5,73.0,29.85,SE,141,0.0,1.0,73,0.00,,,0.00,Wunderground v.1.15,2013-07-09 15:30:00,
2013-07-09 10:41:00,83.0,73.9,29.85,SE,131,0.0,0.0,74,0.00,,,0.00,Wunderground v.1.15,2013-07-09 15:41:00,
2013-07-09 10:50:00,83.4,73.8,29.85,SSE,148,0.0,1.0,73,0.00,,,0.00,Wunderground v.1.15,2013-07-09 15:50:00,
2013-07-09 11:00:00,83.8,74.2,29.84,SSE,166,1.0,1.0,73,0.00,,,0.00,Wunderground v.1.15,2013-07-09 16:00:00,
2013-07-09 11:15:00,84.3,73.9,29.84,SSW,195,1.0,1.0,71,0.00,,,0.00,Wunderground v.1.15,2013-07-09 16:15:00,
2013-07-09 11:25:00,84.4,74.0,29.84,SSW,203,1.0,2.0,71,0.00,,,0.00,Wunderground v.1.15,2013-07-09 16:25:00,
2013-07-09 11:30:00,84.7,74.3,29.84,ESE,118,2.0,2.0,71,0.00,,,0.00,Wunderground v.1.15,2013-07-09 16:30:00,
2013-07-09 11:40:00,84.8,73.5,29.84,SE,131,1.0,2.0,69,0.00,,,0.00,Wunderground v.1.15,2013-07-09 16:40:00,
2013-07-09 11:50:00,85.0,74.1,29.84,SW,214,1.0,1.0,70,0.00,,,0.00,Wunderground v.1.15,2013-07-09 16:50:00,
2013-07-09 12:00:00,85.5,73.7,29.84,NNE,25,1.0,1.0,68,0.00,,,0.00,Wunderground v.1.15,2013-07-09 17:00:00,
2013-07-09 12:05:00,85.8,74.0,29.84,SW,215,1.0,1.0,68,0.00,,,0.00,Wunderground v.1.15,2013-07-09 17:05:00,
2013-07-09 12:10:00,86.1,73.9,29.84,SSE,162,1.0,1.0,67,0.00,,,0.00,Wunderground v.1.15,2013-07-09 17:10:00,
2013-07-09 12:22:00,86.5,74.2,29.84,South,169,1.0,1.0,67,0.00,,,0.00,Wunderground v.1.15,2013-07-09 17:22:00,
2013-07-09 12:31:00,86.9,74.2,29.83,SE,131,1.0,1.0,66,0.00,,,0.00,Wunderground v.1.15,2013-07-09 17:31:00,
2013-07-09 12:37:00,87.0,74.3,29.83,SSE,160,1.0,1.0,66,0.00,,,0.00,Wunderground v.1.15,2013-07-09 17:37:00,
2013-07-09 12:45:00,87.3,75.0,29.83,SSE,148,1.0,2.0,67,0.00,,,0.00,Wunderground v.1.15,2013-07-09 17:45:00,
2013-07-09 12:51:00,87.4,74.6,29.83,SSW,198,1.0,1.0,66,0.00,,,0.00,Wunderground v.1.15,2013-07-09 17:51:00,
2013-07-09 13:00:00,87.9,74.7,29.83,SSE,167,1.0,3.0,65,0.00,,,0.00,Wunderground v.1.15,2013-07-09 18:00:00,
2013-07-09 13:07:00,87.8,74.6,29.83,ESE,120,2.0,3.0,65,0.00,,,0.00,Wunderground v.1.15,2013-07-09 18:07:00,
2013-07-09 13:15:00,88.7,75.4,29.83,WSW,248,1.0,1.0,65,0.00,,,0.00,Wunderground v.1.15,2013-07-09 18:15:00,
2013-07-09 13:22:00,89.0,75.2,29.83,WNW,287,1.0,1.0,64,0.00,,,0.00,Wunderground v.1.15,2013-07-09 18:22:00,
2013-07-09 13:30:00,89.6,75.3,29.82,SSE,166,1.0,1.0,63,0.00,,,0.00,Wunderground v.1.15,2013-07-09 18:30:00,
2013-07-09 13:36:00,89.8,76.0,29.82,South,183,2.0,2.0,64,0.00,,,0.00,Wunderground v.1.15,2013-07-09 18:36:00,
2013-07-09 13:45:00,90.3,76.0,29.82,South,169,1.0,2.0,63,0.00,,,0.00,Wunderground v.1.15,2013-07-09 18:45:00,
2013-07-09 13:51:00,90.5,76.2,29.82,SW,222,1.0,1.0,63,0.00,,,0.00,Wunderground v.1.15,2013-07-09 18:51:00,
2013-07-09 14:00:00,90.6,75.3,29.82,SW,226,1.0,4.0,61,0.00,,,0.00,Wunderground v.1.15,2013-07-09 19:00:00,
2013-07-09 14:07:00,90.7,75.9,29.82,SW,214,1.0,4.0,62,0.00,,,0.00,Wunderground v.1.15,2013-07-09 19:07:00,
2013-07-09 14:15:00,91.4,77.0,29.82,SW,228,1.0,2.0,63,0.00,,,0.00,Wunderground v.1.15,2013-07-09 19:15:00,
2013-07-09 14:21:00,91.9,76.5,29.82,SSW,203,1.0,2.0,61,0.00,,,0.00,Wunderground v.1.15,2013-07-09 19:21:00,
2013-07-09 14:30:00,92.4,77.0,29.82,SSW,208,1.0,1.0,61,0.00,,,0.00,Wunderground v.1.15,2013-07-09 19:30:00,
2013-07-09 14:36:00,92.7,76.8,29.82,WNW,288,0.0,1.0,60,0.00,,,0.00,Wunderground v.1.15,2013-07-09 19:36:00,
2013-07-09 14:45:00,93.2,76.7,29.82,WNW,285,1.0,1.0,59,0.00,,,0.00,Wunderground v.1.15,2013-07-09 19:45:00,
2013-07-09 14:51:00,93.2,76.2,29.82,West,270,1.0,1.0,58,0.00,,,0.00,Wunderground v.1.15,2013-07-09 19:51:00,
2013-07-09 15:00:00,93.1,77.2,29.82,SSW,197,1.0,3.0,60,0.00,,,0.00,Wunderground v.1.15,2013-07-09 20:00:00,
2013-07-09 15:10:00,93.5,77.0,29.82,SSE,163,1.0,2.0,59,0.00,,,0.00,Wunderground v.1.15,2013-07-09 20:10:00,
2013-07-09 15:15:00,94.0,76.4,29.82,SW,217,1.0,2.0,57,0.00,,,0.00,Wunderground v.1.15,2013-07-09 20:15:00,
2013-07-09 15:21:00,94.1,76.0,29.82,SW,228,1.0,1.0,56,0.00,,,0.00,Wunderground v.1.15,2013-07-09 20:21:00,
2013-07-09 15:30:00,93.6,76.6,29.82,SW,217,0.0,2.0,58,0.00,,,0.00,Wunderground v.1.15,2013-07-09 20:30:00,
2013-07-09 15:40:00,94.7,77.1,29.82,SW,226,1.0,1.0,57,0.00,,,0.00,Wunderground v.1.15,2013-07-09 20:40:00,
2013-07-09 15:45:00,94.7,75.5,29.82,SSW,211,1.0,1.0,54,0.00,,,0.00,Wunderground v.1.15,2013-07-09 20:45:00,
2013-07-09 15:51:00,94.7,76.6,29.82,SW,233,1.0,1.0,56,0.00,,,0.00,Wunderground v.1.15,2013-07-09 20:51:00,
2013-07-09 16:00:00,95.2,77.0,29.81,SW,219,1.0,1.0,56,0.00,,,0.00,Wunderground v.1.15,2013-07-09 21:00:00,
2013-07-09 16:07:00,95.6,76.3,29.81,SW,229,0.0,1.0,54,0.00,,,0.00,Wunderground v.1.15,2013-07-09 21:07:00,
2013-07-09 16:15:00,96.2,76.3,29.81,SSW,193,0.0,1.0,53,0.00,,,0.00,Wunderground v.1.15,2013-07-09 21:15:00,
2013-07-09 16:22:00,96.4,75.9,29.81,SSW,193,1.0,1.0,52,0.00,,,0.00,Wunderground v.1.15,2013-07-09 21:22:00,
2013-07-09 16:31:00,96.6,76.7,29.81,West,281,0.0,1.0,53,0.00,,,0.00,Wunderground v.1.15,2013-07-09 21:31:00,
2013-07-09 16:36:00,96.3,76.4,29.81,SSW,198,0.0,1.0,53,0.00,,,0.00,Wunderground v.1.15,2013-07-09 21:36:00,
2013-07-09 16:45:00,96.7,76.2,29.81,SSW,205,0.0,1.0,52,0.00,,,0.00,Wunderground v.1.15,2013-07-09 21:45:00,
2013-07-09 16:52:00,96.7,76.2,29.81,SW,236,0.0,1.0,52,0.00,,,0.00,Wunderground v.1.15,2013-07-09 21:52:00,
2013-07-09 17:00:00,95.9,76.0,29.81,WSW,255,0.0,0.0,53,0.00,,,0.00,Wunderground v.1.15,2013-07-09 22:00:00,
2013-07-09 17:10:00,95.6,76.3,29.81,SE,143,1.0,1.0,54,0.00,,,0.00,Wunderground v.1.15,2013-07-09 22:10:00,
2013-07-09 17:15:00,95.1,75.8,29.81,SSW,195,1.0,1.0,54,0.00,,,0.00,Wunderground v.1.15,2013-07-09 22:15:00,
2013-07-09 17:21:00,94.9,75.7,29.81,South,177,1.0,1.0,54,0.00,,,0.00,Wunderground v.1.15,2013-07-09 22:21:00,
2013-07-09 17:31:00,94.2,75.6,29.81,SW,229,1.0,2.0,55,0.00,,,0.00,Wunderground v.1.15,2013-07-09 22:31:00,
2013-07-09 17:37:00,94.0,76.4,29.81,SE,146,1.0,2.0,57,0.00,,,0.00,Wunderground v.1.15,2013-07-09 22:37:00,
2013-07-09 17:45:00,93.9,76.4,29.81,SSW,208,0.0,0.0,57,0.00,,,0.00,Wunderground v.1.15,2013-07-09 22:45:00,
2013-07-09 17:51:00,93.8,77.3,29.81,NNW,343,0.0,0.0,59,0.00,,,0.00,Wunderground v.1.15,2013-07-09 22:51:00,
2013-07-09 18:00:00,92.6,76.2,29.81,NNW,345,0.0,0.0,59,0.00,,,0.00,Wunderground v.1.15,2013-07-09 23:00:00,
2013-07-09 18:10:00,91.4,76.5,29.80,NNW,345,0.0,0.0,62,0.00,,,0.00,Wunderground v.1.15,2013-07-09 23:10:00,
2013-07-09 18:22:00,91.4,76.1,29.80,NNW,345,0.0,0.0,61,0.00,,,0.00,Wunderground v.1.15,2013-07-09 23:22:00,
2013-07-09 18:30:00,91.3,76.9,29.80,North,349,0.0,0.0,63,0.00,,,0.00,Wunderground v.1.15,2013-07-09 23:30:00,
2013-07-09 18:36:00,91.4,77.0,29.80,NNW,348,0.0,0.0,63,0.00,,,0.00,Wunderground v.1.15,2013-07-09 23:36:00,
2013-07-09 18:45:00,91.5,77.1,29.80,North,349,0.0,0.0,63,0.00,,,0.00,Wunderground v.1.15,2013-07-09 23:45:00,
2013-07-09 18:51:00,91.5,76.6,29.81,NNW,348,0.0,0.0,62,0.00,,,0.00,Wunderground v.1.15,2013-07-09 23:51:00,
2013-07-09 19:00:00,91.2,77.3,29.81,NNW,348,0.0,0.0,64,0.00,,,0.00,Wunderground v.1.15,2013-07-10 00:00:00,
2013-07-09 19:07:00,91.1,77.7,29.81,North,349,0.0,0.0,65,0.00,,,0.00,Wunderground v.1.15,2013-07-10 00:07:00,
2013-07-09 19:15:00,90.5,77.1,29.81,North,349,0.0,0.0,65,0.00,,,0.00,Wunderground v.1.15,2013-07-10 00:15:00,
2013-07-09 19:22:00,90.2,76.8,29.81,North,349,0.0,0.0,65,0.00,,,0.00,Wunderground v.1.15,2013-07-10 00:22:00,
2013-07-09 19:30:00,89.4,76.1,29.81,North,349,0.0,0.0,65,0.00,,,0.00,Wunderground v.1.15,2013-07-10 00:30:00,
2013-07-09 19:36:00,89.1,75.8,29.81,North,349,0.0,0.0,65,0.00,,,0.00,Wunderground v.1.15,2013-07-10 00:36:00,
2013-07-09 19:45:00,88.8,75.0,29.81,North,349,0.0,0.0,64,0.00,,,0.00,Wunderground v.1.15,2013-07-10 00:45:00,
2013-07-09 19:51:00,88.5,74.8,29.81,North,349,0.0,0.0,64,0.00,,,0.00,Wunderground v.1.15,2013-07-10 00:51:00,
2013-07-09 20:00:00,88.1,75.3,29.82,North,349,0.0,0.0,66,0.00,,,0.00,Wunderground v.1.15,2013-07-10 01:00:00,
2013-07-09 20:05:00,87.9,74.7,29.81,NNW,348,0.0,0.0,65,0.00,,,0.00,Wunderground v.1.15,2013-07-10 01:05:00,
2013-07-09 20:11:00,87.6,74.4,29.81,NNW,348,0.0,0.0,65,0.00,,,0.00,Wunderground v.1.15,2013-07-10 01:11:00,
2013-07-09 20:20:00,87.3,74.5,29.81,NNW,348,0.0,0.0,66,0.00,,,0.00,Wunderground v.1.15,2013-07-10 01:20:00,
2013-07-09 20:30:00,86.9,74.2,29.82,North,349,0.0,0.0,66,0.00,,,0.00,Wunderground v.1.15,2013-07-10 01:30:00,
2013-07-09 20:40:00,86.5,74.2,29.82,North,349,0.0,0.0,67,0.00,,,0.00,Wunderground v.1.15,2013-07-10 01:40:00,
2013-07-09 20:45:00,86.4,74.1,29.82,North,349,0.0,0.0,67,0.00,,,0.00,Wunderground v.1.15,2013-07-10 01:45:00,
2013-07-09 20:51:00,86.2,74.4,29.83,North,349,0.0,0.0,68,0.00,,,0.00,Wunderground v.1.15,2013-07-10 01:51:00,
2013-07-09 21:00:00,85.8,74.4,29.83,North,349,0.0,0.0,69,0.00,,,0.00,Wunderground v.1.15,2013-07-10 02:00:00,
2013-07-09 21:10:00,85.6,74.7,29.84,NNW,348,0.0,0.0,70,0.00,,,0.00,Wunderground v.1.15,2013-07-10 02:10:00,
2013-07-09 21:15:00,85.4,74.9,29.84,North,349,0.0,0.0,71,0.00,,,0.00,Wunderground v.1.15,2013-07-10 02:15:00,
2013-07-09 21:25:00,85.2,74.7,29.84,North,349,0.0,0.0,71,0.00,,,0.00,Wunderground v.1.15,2013-07-10 02:25:00,
2013-07-09 21:30:00,85.1,75.1,29.84,North,350,0.0,0.0,72,0.00,,,0.00,Wunderground v.1.15,2013-07-10 02:30:00,
2013-07-09 21:40:00,84.9,74.9,29.84,North,350,0.0,0.0,72,0.00,,,0.00,Wunderground v.1.15,2013-07-10 02:40:00,
2013-07-09 21:45:00,84.8,74.8,29.84,North,349,0.0,0.0,72,0.00,,,0.00,Wunderground v.1.15,2013-07-10 02:45:00,
2013-07-09 21:55:00,84.5,74.5,29.84,North,354,0.0,1.0,72,0.00,,,0.00,Wunderground v.1.15,2013-07-10 02:55:00,
2013-07-09 22:01:00,84.4,74.0,29.84,North,352,0.0,0.0,71,0.00,,,0.00,Wunderground v.1.15,2013-07-10 03:01:00,
2013-07-09 22:10:00,84.1,73.7,29.84,North,356,0.0,0.0,71,0.00,,,0.00,Wunderground v.1.15,2013-07-10 03:10:00,
2013-07-09 22:20:00,83.9,73.5,29.85,North,352,0.0,1.0,71,0.00,,,0.00,Wunderground v.1.15,2013-07-10 03:20:00,
2013-07-09 22:30:00,83.7,73.7,29.85,North,355,0.0,0.0,72,0.00,,,0.00,Wunderground v.1.15,2013-07-10 03:30:00,
2013-07-09 22:35:00,83.6,73.6,29.85,North,355,0.0,0.0,72,0.00,,,0.00,Wunderground v.1.15,2013-07-10 03:35:00,
2013-07-09 22:41:00,83.5,73.5,29.85,North,355,0.0,1.0,72,0.00,,,0.00,Wunderground v.1.15,2013-07-10 03:41:00,
2013-07-09 22:50:00,83.2,73.6,29.85,North,359,0.0,0.0,73,0.00,,,0.00,Wunderground v.1.15,2013-07-10 03:50:00,
2013-07-09 23:00:00,82.9,73.8,29.86,North,358,0.0,0.0,74,0.00,,,0.00,Wunderground v.1.15,2013-07-10 04:00:00,
2013-07-09 23:05:00,82.8,73.7,29.86,North,359,0.0,0.0,74,0.00,,,0.00,Wunderground v.1.15,2013-07-10 04:05:00,
2013-07-09 23:10:00,82.6,73.5,29.87,North,360,0.0,0.0,74,0.00,,,0.00,Wunderground v.1.15,2013-07-10 04:10:00,
2013-07-09 23:20:00,82.2,73.5,29.87,North,358,0.0,0.0,75,0.00,,,0.00,Wunderground v.1.15,2013-07-10 04:20:00,
2013-07-09 23:25:00,82.0,73.3,29.87,North,353,0.0,1.0,75,0.00,,,0.00,Wunderground v.1.15,2013-07-10 04:25:00,
2013-07-09 23:30:00,81.9,73.2,29.87,North,353,0.0,0.0,75,0.00,,,0.00,Wunderground v.1.15,2013-07-10 04:30:00,
2013-07-09 23:40:00,81.6,72.9,29.88,North,353,0.0,0.0,75,0.00,,,0.00,Wunderground v.1.15,2013-07-10 04:40:00,
2013-07-09 23:46:00,81.4,72.7,29.88,North,353,0.0,0.0,75,0.00,,,0.00,Wunderground v.1.15,2013-07-10 04:46:00,
2013-07-09 23:55:00,81.2,72.5,29.88,North,353,0.0,0.0,75,0.00,,,0.00,Wunderground v.1.15,2013-07-10 04:55:00,